Time,TemperatureF,DewpointF,PressureIn,WindDirection,WindDirectionDegrees,WindSpeedMPH,WindSpeedGustMPH,Humidity,HourlyPrecipIn,Conditions,Clouds,dailyrainin,SoftwareType,DateUTC
2013-07-22 00:10:00,54.1,31.0,29.96,NW,309,0.0,-999.0,41,-99.99,,,0.00,weatherlink.com 1.10,2013-07-22 07:10:00,
2013-07-22 00:25:00,53.5,30.0,29.96,NW,309,0.0,-999.0,40,-99.99,,,0.00,weatherlink.com 1.10,2013-07-22 07:25:00,
2013-07-22 00:40:00,53.7,29.0,29.97,NW,309,0.0,-999.0,39,-99.99,,,0.00,weatherlink.com 1.10,2013-07-22 07:40:00,
2013-07-22 00:55:00,54.6,30.0,29.97,NW,309,0.0,-999.0,39,-99.99,,,0.00,weatherlink.com 1.10,2013-07-22 07:55:00,
2013-07-22 01:10:00,55.1,30.0,29.97,NW,309,0.0,-999.0,38,-99.99,,,0.00,weatherlink.com 1.10,2013-07-22 08:10:00,
2013-07-22 01:25:00,55.3,30.0,29.97,NW,309,0.0,-999.0,38,-99.99,,,0.00,weatherlink.com 1.10,2013-07-22 08:25:00,
2013-07-22 01:40:00,55.4,30.0,29.97,NW,309,0.0,-999.0,38,-99.99,,,0.00,weatherlink.com 1.10,2013-07-22 08:40:00,
2013-07-22 01:56:00,55.5,30.0,29.97,NW,309,0.0,-999.0,38,-99.99,,,0.00,weatherlink.com 1.10,2013-07-22 08:56:00,
2013-07-22 02:10:00,55.5,30.0,29.98,NW,309,0.0,-999.0,38,-99.99,,,0.00,weatherlink.com 1.10,2013-07-22 09:10:00,
2013-07-22 02:25:00,55.6,30.0,29.98,NW,309,0.0,-999.0,38,-99.99,,,0.00,weatherlink.com 1.10,2013-07-22 09:25:00,
2013-07-22 02:40:00,55.5,31.0,29.98,NW,309,0.0,-999.0,39,-99.99,,,0.00,weatherlink.com 1.10,2013-07-22 09:40:00,
2013-07-22 02:55:00,55.5,31.0,29.98,NW,309,0.0,-999.0,39,-99.99,,,0.00,weatherlink.com 1.10,2013-07-22 09:55:00,
2013-07-22 03:10:00,55.4,31.0,29.98,NW,309,0.0,-999.0,39,-99.99,,,0.00,weatherlink.com 1.10,2013-07-22 10:10:00,
2013-07-22 03:25:00,55.3,31.0,29.99,NW,309,2.0,-999.0,39,-99.99,,,0.00,weatherlink.com 1.10,2013-07-22 10:25:00,
2013-07-22 03:40:00,55.0,30.0,29.99,NW,309,0.0,-999.0,39,-99.99,,,0.00,weatherlink.com 1.10,2013-07-22 10:40:00,
2013-07-22 03:55:00,54.8,30.0,29.98,NW,309,0.0,-999.0,39,-99.99,,,0.00,weatherlink.com 1.10,2013-07-22 10:55:00,
2013-07-22 04:10:00,54.8,30.0,29.99,NW,309,0.0,-999.0,39,-99.99,,,0.00,weatherlink.com 1.10,2013-07-22 11:10:00,
2013-07-22 04:25:00,54.8,30.0,29.99,NW,309,0.0,-999.0,39,-99.99,,,0.00,weatherlink.com 1.10,2013-07-22 11:25:00,
2013-07-22 04:40:00,55.0,30.0,29.99,NW,309,0.0,-999.0,38,-99.99,,,0.00,weatherlink.com 1.10,2013-07-22 11:40:00,
2013-07-22 04:55:00,54.9,30.0,29.99,NW,309,0.0,-999.0,38,-99.99,,,0.00,weatherlink.com 1.10,2013-07-22 11:55:00,
2013-07-22 05:10:00,54.8,29.0,29.99,NW,309,0.0,-999.0,38,-99.99,,,0.00,weatherlink.com 1.10,2013-07-22 12:10:00,
2013-07-22 05:25:00,54.8,29.0,30.00,NW,309,0.0,-999.0,38,-99.99,,,0.00,weatherlink.com 1.10,2013-07-22 12:25:00,
2013-07-22 05:40:00,54.7,29.0,30.00,NW,309,0.0,-999.0,38,-99.99,,,0.00,weatherlink.com 1.10,2013-07-22 12:40:00,
2013-07-22 05:55:00,54.7,29.0,30.00,NW,309,0.0,-999.0,38,-99.99,,,0.00,weatherlink.com 1.10,2013-07-22 12:55:00,
2013-07-22 06:10:00,54.7,29.0,30.01,NW,309,0.0,-999.0,38,-99.99,,,0.00,weatherlink.com 1.10,2013-07-22 13:10:00,
2013-07-22 06:25:00,54.7,29.0,30.01,NW,309,0.0,-999.0,38,-99.99,,,0.00,weatherlink.com 1.10,2013-07-22 13:25:00,
2013-07-22 06:40:00,54.8,29.0,30.01,NW,309,0.0,-999.0,38,-99.99,,,0.00,weatherlink.com 1.10,2013-07-22 13:40:00,
2013-07-22 06:55:00,55.0,30.0,30.02,NW,309,0.0,-999.0,38,-99.99,,,0.00,weatherlink.com 1.10,2013-07-22 13:55:00,
2013-07-22 07:10:00,55.1,30.0,30.02,NW,309,0.0,-999.0,38,-99.99,,,0.00,weatherlink.com 1.10,2013-07-22 14:10:00,
2013-07-22 07:25:00,55.3,30.0,30.03,NW,311,0.0,-999.0,38,-99.99,,,0.00,weatherlink.com 1.10,2013-07-22 14:25:00,
2013-07-22 07:40:00,55.6,30.0,30.03,NW,311,0.0,-999.0,38,-99.99,,,0.00,weatherlink.com 1.10,2013-07-22 14:40:00,
2013-07-22 07:55:00,56.0,31.0,30.03,NW,310,0.0,-999.0,38,-99.99,,,0.00,weatherlink.com 1.10,2013-07-22 14:55:00,
2013-07-22 08:10:00,56.4,31.0,30.03,NNW,333,0.0,-999.0,38,-99.99,,,0.00,weatherlink.com 1.10,2013-07-22 15:10:00,
2013-07-22 08:25:00,56.7,32.0,30.03,NW,325,0.0,-999.0,39,-99.99,,,0.00,weatherlink.com 1.10,2013-07-22 15:25:00,
2013-07-22 08:40:00,56.8,33.0,30.04,NW,316,0.0,-999.0,41,-99.99,,,0.00,weatherlink.com 1.10,2013-07-22 15:40:00,
2013-07-22 08:55:00,57.0,35.0,30.04,NW,311,2.0,-999.0,44,-99.99,,,0.00,weatherlink.com 1.10,2013-07-22 15:55:00,
2013-07-22 09:10:00,57.4,37.0,30.04,NW,305,0.0,-999.0,46,-99.99,,,0.00,weatherlink.com 1.10,2013-07-22 16:10:00,
2013-07-22 09:25:00,57.6,37.0,30.04,WNW,300,0.0,-999.0,46,-99.99,,,0.00,weatherlink.com 1.10,2013-07-22 16:25:00,
2013-07-22 09:40:00,57.8,39.0,30.05,WNW,294,2.0,-999.0,49,-99.99,,,0.00,weatherlink.com 1.10,2013-07-22 16:40:00,
2013-07-22 09:55:00,58.2,40.0,30.05,WNW,286,2.0,-999.0,51,-99.99,,,0.00,weatherlink.com 1.10,2013-07-22 16:55:00,
2013-07-22 10:10:00,58.6,41.0,30.05,WNW,286,0.0,-999.0,52,-99.99,,,0.00,weatherlink.com 1.10,2013-07-22 17:10:00,
2013-07-22 10:25:00,59.0,41.0,30.05,NW,305,2.0,-999.0,52,-99.99,,,0.00,weatherlink.com 1.10,2013-07-22 17:25:00,
2013-07-22 10:40:00,59.0,42.0,30.05,NW,306,2.0,-999.0,53,-99.99,,,0.00,weatherlink.com 1.10,2013-07-22 17:40:00,
2013-07-22 10:55:00,59.4,42.0,30.05,WNW,289,2.0,-999.0,53,-99.99,,,0.00,weatherlink.com 1.10,2013-07-22 17:55:00,
2013-07-22 11:55:00,61.1,45.0,30.05,NW,317,0.0,-999.0,56,-99.99,,,0.00,weatherlink.com 1.10,2013-07-22 18:55:00,
2013-07-22 12:10:00,61.4,45.0,30.06,West,278,0.0,-999.0,56,-99.99,,,0.00,weatherlink.com 1.10,2013-07-22 19:10:00,
2013-07-22 12:25:00,61.7,46.0,30.06,SW,227,0.0,-999.0,57,-99.99,,,0.00,weatherlink.com 1.10,2013-07-22 19:25:00,
2013-07-22 12:40:00,62.5,47.0,30.05,WSW,253,0.0,-999.0,58,-99.99,,,0.00,weatherlink.com 1.10,2013-07-22 19:40:00,
2013-07-22 12:55:00,62.8,47.0,30.05,WNW,286,1.0,-999.0,57,-99.99,,,0.00,weatherlink.com 1.10,2013-07-22 19:55:00,
2013-07-22 13:25:00,64.3,49.0,30.05,SSW,209,0.0,-999.0,58,-99.99,,,0.00,weatherlink.com 1.10,2013-07-22 20:25:00,
2013-07-22 13:40:00,66.4,52.0,30.05,ESE,105,3.0,-999.0,61,-99.99,,,0.00,weatherlink.com 1.10,2013-07-22 20:40:00,
2013-07-22 13:55:00,67.2,53.0,30.04,East,90,1.0,-999.0,61,-99.99,,,0.00,weatherlink.com 1.10,2013-07-22 20:55:00,
2013-07-22 14:10:00,67.4,53.0,30.04,ESE,111,0.0,-999.0,61,-99.99,,,0.00,weatherlink.com 1.10,2013-07-22 21:10:00,
2013-07-22 14:25:00,68.4,55.0,30.04,NW,323,1.0,-999.0,62,-99.99,,,0.00,weatherlink.com 1.10,2013-07-22 21:25:00,
2013-07-22 14:40:00,70.5,56.0,30.03,South,191,1.0,-999.0,61,-99.99,,,0.00,weatherlink.com 1.10,2013-07-22 21:40:00,
2013-07-22 14:55:00,71.9,58.0,30.02,ENE,71,2.0,-999.0,62,-99.99,,,0.00,weatherlink.com 1.10,2013-07-22 21:55:00,
2013-07-22 15:10:00,72.1,58.0,30.02,WNW,292,3.0,-999.0,62,-99.99,,,0.00,weatherlink.com 1.10,2013-07-22 22:10:00,
2013-07-22 15:25:00,73.0,59.0,30.02,West,278,3.0,-999.0,62,-99.99,,,0.00,weatherlink.com 1.10,2013-07-22 22:25:00,
2013-07-22 15:40:00,73.2,59.0,30.01,WNW,286,4.0,-999.0,61,-99.99,,,0.00,weatherlink.com 1.10,2013-07-22 22:40:00,
2013-07-22 15:55:00,73.3,59.0,30.01,WNW,291,2.0,-999.0,61,-99.99,,,0.00,weatherlink.com 1.10,2013-07-22 22:55:00,
2013-07-22 16:10:00,73.7,59.0,30.00,West,263,6.0,-999.0,61,-99.99,,,0.00,weatherlink.com 1.10,2013-07-22 23:10:00,
2013-07-22 16:25:00,73.9,59.0,30.00,West,265,5.0,-999.0,61,-99.99,,,0.00,weatherlink.com 1.10,2013-07-22 23:25:00,
2013-07-22 16:40:00,74.7,60.0,30.00,WNW,292,5.0,-999.0,61,-99.99,,,0.00,weatherlink.com 1.10,2013-07-22 23:40:00,
2013-07-22 16:55:00,75.1,61.0,29.99,WNW,300,4.0,-999.0,61,-99.99,,,0.00,weatherlink.com 1.10,2013-07-22 23:55:00,
2013-07-22 17:10:00,74.7,60.0,29.99,NW,321,2.0,-999.0,60,-99.99,,,0.00,weatherlink.com 1.10,2013-07-23 00:10:00,
2013-07-22 17:25:00,75.4,60.0,29.99,NW,313,6.0,-999.0,60,-99.99,,,0.00,weatherlink.com 1.10,2013-07-23 00:25:00,
2013-07-22 17:40:00,74.9,60.0,29.98,WNW,285,2.0,-999.0,61,-99.99,,,0.00,weatherlink.com 1.10,2013-07-23 00:40:00,
2013-07-22 17:55:00,75.8,61.0,29.98,WNW,286,3.0,-999.0,60,-99.99,,,0.00,weatherlink.com 1.10,2013-07-23 00:55:00,
2013-07-22 18:10:00,74.9,60.0,29.97,WNW,294,4.0,-999.0,61,-99.99,,,0.00,weatherlink.com 1.10,2013-07-23 01:10:00,
2013-07-22 18:25:00,74.4,60.0,29.97,WNW,297,4.0,-999.0,61,-99.99,,,0.00,weatherlink.com 1.10,2013-07-23 01:25:00,
2013-07-22 18:40:00,74.1,60.0,29.97,WNW,288,5.0,-999.0,61,-99.99,,,0.00,weatherlink.com 1.10,2013-07-23 01:40:00,
2013-07-22 18:55:00,73.7,59.0,29.98,NW,316,2.0,-999.0,61,-99.99,,,0.00,weatherlink.com 1.10,2013-07-23 01:55:00,
2013-07-22 19:10:00,73.7,59.0,29.97,WNW,293,1.0,-999.0,61,-99.99,,,0.00,weatherlink.com 1.10,2013-07-23 02:10:00,
2013-07-22 19:25:00,73.6,59.0,29.98,WNW,286,3.0,-999.0,61,-99.99,,,0.00,weatherlink.com 1.10,2013-07-23 02:25:00,
2013-07-22 19:40:00,72.8,58.0,29.98,NW,312,5.0,-999.0,61,-99.99,,,0.00,weatherlink.com 1.10,2013-07-23 02:40:00,
2013-07-22 19:55:00,72.0,58.0,29.98,NW,308,3.0,-999.0,61,-99.99,,,0.00,weatherlink.com 1.10,2013-07-23 02:55:00,
2013-07-22 20:10:00,71.3,57.0,29.98,NNW,331,2.0,-999.0,61,-99.99,,,0.00,weatherlink.com 1.10,2013-07-23 03:10:00,
2013-07-22 20:25:00,70.8,56.0,29.98,WNW,303,2.0,-999.0,60,-99.99,,,0.00,weatherlink.com 1.10,2013-07-23 03:25:00,
2013-07-22 20:40:00,69.1,54.0,29.98,NW,326,4.0,-999.0,59,-99.99,,,0.00,weatherlink.com 1.10,2013-07-23 03:40:00,
2013-07-22 20:55:00,68.1,52.0,29.98,WNW,299,2.0,-999.0,57,-99.99,,,0.00,weatherlink.com 1.10,2013-07-23 03:55:00,
2013-07-22 21:10:00,67.1,51.0,29.98,WNW,296,0.0,-999.0,56,-99.99,,,0.00,weatherlink.com 1.10,2013-07-23 04:10:00,
2013-07-22 21:25:00,65.7,49.0,29.98,WNW,296,0.0,-999.0,55,-99.99,,,0.00,weatherlink.com 1.10,2013-07-23 04:25:00,
2013-07-22 21:40:00,63.8,45.0,29.99,WNW,296,0.0,-999.0,50,-99.99,,,0.00,weatherlink.com 1.10,2013-07-23 04:40:00,
2013-07-22 21:55:00,62.5,41.0,30.00,WNW,296,0.0,-999.0,46,-99.99,,,0.00,weatherlink.com 1.10,2013-07-23 04:55:00,
2013-07-22 22:10:00,61.6,39.0,30.00,WNW,296,0.0,-999.0,44,-99.99,,,0.00,weatherlink.com 1.10,2013-07-23 05:10:00,
2013-07-22 22:25:00,61.7,39.0,30.00,WNW,294,0.0,-999.0,44,-99.99,,,0.00,weatherlink.com 1.10,2013-07-23 05:25:00,
2013-07-22 22:40:00,61.1,39.0,30.00,WNW,294,0.0,-999.0,44,-99.99,,,0.00,weatherlink.com 1.10,2013-07-23 05:40:00,
2013-07-22 22:55:00,59.9,37.0,30.00,WNW,294,0.0,-999.0,43,-99.99,,,0.00,weatherlink.com 1.10,2013-07-23 05:55:00,
2013-07-22 23:10:00,59.9,35.0,30.01,WNW,288,0.0,-999.0,40,-99.99,,,0.00,weatherlink.com 1.10,2013-07-23 06:10:00,
2013-07-22 23:25:00,60.5,36.0,30.01,WNW,288,1.0,-999.0,41,-99.99,,,0.00,weatherlink.com 1.10,2013-07-23 06:25:00,
2013-07-22 23:40:00,60.3,37.0,30.01,WNW,288,0.0,-999.0,42,-99.99,,,0.00,weatherlink.com 1.10,2013-07-23 06:40:00,
2013-07-22 23:55:00,59.0,36.0,30.02,WNW,288,0.0,-999.0,42,-99.99,,,0.00,weatherlink.com 1.10,2013-07-23 06:55:00,